| time (UTC) | temp F | wind direction | speed knots | gust knots | rain 1hr in | rain 24hr in | rain mn in | humidity % | barometer mb |
| 20260508174654 | 80 | 191 | 0.0 | 0.0 | 0.00 | 0.00 | 0.00 | 71 | 1015.0 |
| 20260508174150 | 80 | 190 | 0.9 | 0.9 | 0.00 | 0.00 | 0.00 | 69 | 1015.0 |
| 20260508173647 | 80 | 233 | 0.0 | 0.0 | 0.00 | 0.00 | 0.00 | 73 | 1015.3 |
| 20260508173143 | 79 | 235 | 0.0 | 0.0 | 0.00 | 0.00 | 0.00 | 71 | 1015.2 |
| 20260508172640 | 78 | 183 | 0.9 | 0.9 | 0.00 | 0.00 | 0.00 | 70 | 1015.2 |
| 20260508172137 | 78 | 283 | 0.9 | 1.7 | 0.00 | 0.00 | 0.00 | 70 | 1015.4 |
| 20260508171633 | 77 | 231 | 0.9 | 0.9 | 0.00 | 0.00 | 0.00 | 72 | 1015.6 |
| 20260508171130 | 76 | 199 | 0.9 | 0.9 | 0.00 | 0.00 | 0.00 | 76 | 1015.6 |
| 20260508170627 | 75 | 203 | 0.9 | 1.7 | 0.00 | 0.00 | 0.00 | 74 | 1015.9 |
| 20260508170125 | 76 | 198 | 1.7 | 2.6 | 0.00 | 0.00 | 0.00 | 73 | 1015.9 |
| 20260508165622 | 74 | 292 | 1.7 | 1.7 | 0.00 | 0.00 | 0.00 | 76 | 1015.7 |
| 20260508165118 | 75 | 292 | 0.9 | 1.7 | 0.00 | 0.00 | 0.00 | 75 | 1016.0 |
| 20260508164614 | 75 | 256 | 0.0 | 0.0 | 0.00 | 0.00 | 0.00 | 72 | 1015.9 |
| 20260508164112 | 76 | 232 | 0.0 | 0.0 | 0.00 | 0.00 | 0.00 | 72 | 1016.0 |
| 20260508163609 | 75 | 234 | 0.0 | 0.9 | 0.00 | 0.00 | 0.00 | 73 | 1016.0 |
| 20260508163106 | 74 | 233 | 0.0 | 0.0 | 0.00 | 0.00 | 0.00 | 74 | 1016.1 |
| 20260508162602 | 73 | 234 | 0.0 | 0.0 | 0.00 | 0.00 | 0.00 | 75 | 1016.2 |
| 20260508162100 | 74 | 205 | 0.0 | 0.0 | 0.00 | 0.00 | 0.00 | 73 | 1016.2 |
| 20260508161556 | 73 | 206 | 0.0 | 0.9 | 0.00 | 0.00 | 0.00 | 76 | 1016.4 |
| 20260508161054 | 71 | 205 | 0.0 | 0.0 | 0.00 | 0.00 | 0.00 | 78 | 1016.5 |
| 20260508160552 | 71 | 205 | 0.0 | 0.0 | 0.00 | 0.00 | 0.00 | 78 | 1016.4 |
| 20260508160049 | 70 | 205 | 0.9 | 0.9 | 0.00 | 0.00 | 0.00 | 77 | 1016.5 |
| 20260508155546 | 70 | 204 | 0.0 | 0.0 | 0.00 | 0.00 | 0.00 | 78 | 1016.6 |
| 20260508155043 | 70 | 203 | 0.9 | 1.7 | 0.00 | 0.00 | 0.00 | 78 | 1016.6 |
| 20260508154540 | 69 | 204 | 0.0 | 0.9 | 0.00 | 0.00 | 0.00 | 79 | 1016.7 |
| 20260508154037 | 69 | 203 | 0.9 | 0.9 | 0.00 | 0.00 | 0.00 | 80 | 1016.7 |
| 20260508153533 | 68 | 219 | 0.9 | 1.7 | 0.00 | 0.00 | 0.00 | 80 | 1016.7 |
| 20260508153030 | 67 | 203 | 0.9 | 0.9 | 0.00 | 0.00 | 0.00 | 81 | 1016.8 |
| 20260508152527 | 67 | 203 | 0.0 | 0.0 | 0.00 | 0.00 | 0.00 | 82 | 1016.8 |
| 20260508152022 | 67 | 203 | 0.0 | 0.0 | 0.00 | 0.00 | 0.00 | 82 | 1017.0 |
| 20260508151520 | 66 | 203 | 0.0 | 0.0 | 0.00 | 0.00 | 0.00 | 82 | 1017.1 |
| 20260508151016 | 66 | 203 | 0.0 | 0.0 | 0.00 | 0.00 | 0.00 | 82 | 1017.2 |
| 20260508150514 | 66 | 203 | 0.0 | 0.9 | 0.00 | 0.00 | 0.00 | 83 | 1017.1 |
| 20260508150009 | 66 | 205 | 1.7 | 1.7 | 0.00 | 0.00 | 0.00 | 82 | 1017.1 |
| 20260508145506 | 66 | 203 | 0.0 | 0.0 | 0.00 | 0.00 | 0.00 | 83 | 1017.2 |
| 20260508145002 | 66 | 205 | 1.7 | 1.7 | 0.00 | 0.00 | 0.00 | 82 | 1017.1 |
| 20260508144500 | 67 | 203 | 0.9 | 1.7 | 0.00 | 0.00 | 0.00 | 82 | 1017.1 |
| 20260508143957 | 66 | 221 | 0.9 | 1.7 | 0.00 | 0.00 | 0.00 | 81 | 1017.1 |
| 20260508143455 | 66 | 220 | 1.7 | 1.7 | 0.00 | 0.00 | 0.00 | 82 | 1017.0 |
| 20260508142951 | 66 | 220 | 0.9 | 0.9 | 0.00 | 0.00 | 0.00 | 82 | 1017.1 |
| 20260508142448 | 66 | 220 | 0.9 | 0.9 | 0.00 | 0.00 | 0.00 | 83 | 1017.0 |
| 20260508141944 | 66 | 221 | 0.9 | 1.7 | 0.00 | 0.00 | 0.00 | 82 | 1016.8 |
| 20260508141441 | 66 | 222 | 0.0 | 0.0 | 0.00 | 0.00 | 0.00 | 82 | 1016.8 |
| 20260508140939 | 65 | 221 | 1.7 | 1.7 | 0.00 | 0.00 | 0.00 | 82 | 1016.8 |
| 20260508140436 | 65 | 222 | 0.0 | 0.0 | 0.00 | 0.00 | 0.00 | 84 | 1017.0 |
| 20260508135931 | 65 | 223 | 0.0 | 0.0 | 0.00 | 0.00 | 0.00 | 83 | 1016.8 |
| 20260508135428 | 64 | 222 | 0.9 | 0.9 | 0.00 | 0.00 | 0.00 | 84 | 1016.8 |
| 20260508134925 | 64 | 223 | 0.9 | 0.9 | 0.00 | 0.00 | 0.00 | 84 | 1017.1 |
| 20260508134421 | 64 | 222 | 1.7 | 1.7 | 0.00 | 0.00 | 0.00 | 85 | 1017.3 |
| 20260508133918 | 64 | 223 | 0.0 | 0.9 | 0.00 | 0.00 | 0.00 | 85 | 1017.2 |
| 20260508133416 | 64 | 223 | 0.0 | 0.9 | 0.00 | 0.00 | 0.00 | 86 | 1017.1 |
| 20260508132912 | 64 | 223 | 0.0 | 0.0 | 0.00 | 0.00 | 0.00 | 86 | 1017.2 |
| 20260508132410 | 64 | 223 | 0.9 | 1.7 | 0.00 | 0.00 | 0.00 | 85 | 1017.2 |
| 20260508131907 | 63 | 224 | 0.9 | 0.9 | 0.00 | 0.00 | 0.00 | 85 | 1017.4 |
| 20260508131402 | 63 | 224 | 0.0 | 0.0 | 0.00 | 0.00 | 0.00 | 86 | 1017.4 |
| 20260508130859 | 63 | 224 | 0.0 | 0.0 | 0.00 | 0.00 | 0.00 | 86 | 1017.3 |
| 20260508130356 | 63 | 235 | 0.0 | 0.0 | 0.00 | 0.00 | 0.00 | 86 | 1017.2 |
| 20260508125852 | 63 | 235 | 0.0 | 0.0 | 0.00 | 0.00 | 0.00 | 86 | 1017.5 |
| 20260508125348 | 63 | 235 | 0.0 | 0.0 | 0.00 | 0.00 | 0.00 | 86 | 1017.6 |
| 20260508124846 | 63 | 235 | 0.0 | 0.0 | 0.00 | 0.00 | 0.00 | 86 | 1017.5 |
| 20260508124343 | 63 | 226 | 0.0 | 0.0 | 0.00 | 0.00 | 0.00 | 85 | 1017.7 |
| 20260508123841 | 62 | 225 | 0.0 | 0.0 | 0.00 | 0.00 | 0.00 | 85 | 1017.5 |
| 20260508123340 | 62 | 225 | 0.0 | 0.0 | 0.00 | 0.00 | 0.00 | 85 | 1017.6 |
| 20260508122836 | 62 | 225 | 0.0 | 0.0 | 0.00 | 0.00 | 0.00 | 85 | 1017.4 |
| 20260508122332 | 62 | 216 | 0.0 | 0.0 | 0.00 | 0.00 | 0.00 | 86 | 1017.6 |
| 20260508121830 | 62 | 225 | 0.0 | 0.0 | 0.00 | 0.00 | 0.00 | 86 | 1017.5 |
| 20260508121328 | 62 | 241 | 0.0 | 0.0 | 0.00 | 0.00 | 0.00 | 86 | 1017.2 |
| 20260508120826 | 62 | 248 | 0.0 | 0.0 | 0.00 | 0.00 | 0.00 | 87 | 1017.7 |
| 20260508120323 | 62 | 228 | 0.0 | 0.0 | 0.00 | 0.00 | 0.00 | 88 | 1017.6 |
| 20260508115820 | 62 | 226 | 0.0 | 0.0 | 0.00 | 0.00 | 0.00 | 88 | 1017.7 |
| 20260508115318 | 62 | 226 | 0.0 | 0.0 | 0.00 | 0.00 | 0.00 | 88 | 1017.7 |
| 20260508114814 | 62 | 225 | 0.9 | 0.9 | 0.00 | 0.00 | 0.00 | 88 | 1017.9 |
| 20260508114311 | 62 | 249 | 0.0 | 0.0 | 0.00 | 0.00 | 0.00 | 88 | 1018.1 |
| 20260508113808 | 62 | 249 | 0.0 | 0.0 | 0.00 | 0.00 | 0.00 | 88 | 1018.1 |
| 20260508113306 | 62 | 249 | 0.0 | 0.0 | 0.00 | 0.00 | 0.00 | 88 | 1018.0 |
| 20260508112802 | 62 | 249 | 0.0 | 0.0 | 0.00 | 0.00 | 0.00 | 88 | 1018.0 |
| 20260508112259 | 62 | 249 | 0.0 | 0.0 | 0.00 | 0.00 | 0.00 | 87 | 1018.0 |
| 20260508111755 | 62 | 249 | 0.0 | 0.0 | 0.00 | 0.00 | 0.00 | 87 | 1018.0 |
| 20260508111254 | 62 | 249 | 0.0 | 0.0 | 0.00 | 0.00 | 0.00 | 87 | 1017.6 |
| 20260508110750 | 62 | 249 | 0.0 | 0.0 | 0.00 | 0.00 | 0.00 | 87 | 1017.9 |
| 20260508110248 | 62 | 249 | 0.0 | 0.0 | 0.00 | 0.00 | 0.00 | 87 | 1017.9 |
| 20260508105747 | 62 | 249 | 0.0 | 0.0 | 0.00 | 0.00 | 0.00 | 87 | 1018.1 |
| 20260508105244 | 62 | 249 | 0.0 | 0.0 | 0.00 | 0.00 | 0.00 | 87 | 1017.5 |
| 20260508104742 | 62 | 249 | 0.0 | 0.0 | 0.00 | 0.00 | 0.00 | 87 | 1017.6 |
| 20260508104238 | 62 | 249 | 0.0 | 0.0 | 0.00 | 0.00 | 0.00 | 87 | 1017.5 |
| 20260508103736 | 62 | 248 | 0.9 | 0.9 | 0.00 | 0.00 | 0.00 | 87 | 1017.5 |
| 20260508103232 | 62 | 249 | 0.0 | 0.0 | 0.00 | 0.00 | 0.00 | 87 | 1017.4 |
| 20260508102730 | 62 | 249 | 0.0 | 0.0 | 0.00 | 0.00 | 0.00 | 87 | 1017.5 |
| 20260508102228 | 62 | 249 | 0.0 | 0.0 | 0.00 | 0.00 | 0.00 | 87 | 1017.8 |
| 20260508101725 | 62 | 258 | 0.9 | 1.7 | 0.00 | 0.00 | 0.00 | 87 | 1017.7 |
| 20260508101222 | 62 | 227 | 0.0 | 0.0 | 0.00 | 0.00 | 0.00 | 88 | 1017.8 |
| 20260508100720 | 62 | 227 | 0.9 | 1.7 | 0.00 | 0.00 | 0.00 | 87 | 1018.0 |
| 20260508100218 | 62 | 227 | 0.0 | 0.9 | 0.00 | 0.00 | 0.00 | 87 | 1018.1 |
| 20260508095713 | 62 | 227 | 0.0 | 0.0 | 0.00 | 0.00 | 0.00 | 87 | 1018.3 |
| 20260508095212 | 62 | 249 | 0.0 | 0.0 | 0.00 | 0.00 | 0.00 | 86 | 1018.2 |
| 20260508094708 | 62 | 249 | 0.0 | 0.0 | 0.00 | 0.00 | 0.00 | 86 | 1018.2 |
| 20260508094205 | 62 | 215 | 0.0 | 0.0 | 0.00 | 0.00 | 0.00 | 86 | 1018.1 |
| 20260508093702 | 62 | 215 | 0.0 | 0.0 | 0.00 | 0.00 | 0.00 | 86 | 1018.0 |
| 20260508093200 | 62 | 215 | 0.0 | 0.0 | 0.00 | 0.00 | 0.00 | 86 | 1018.1 |
| 20260508092656 | 62 | 215 | 0.0 | 0.0 | 0.00 | 0.00 | 0.00 | 86 | 1018.0 |
| 20260508092155 | 62 | 215 | 0.0 | 0.0 | 0.00 | 0.00 | 0.00 | 86 | 1018.2 |
| 20260508091652 | 62 | 215 | 0.0 | 0.0 | 0.00 | 0.00 | 0.00 | 86 | 1018.0 |
| 20260508091149 | 62 | 215 | 0.0 | 0.0 | 0.00 | 0.00 | 0.00 | 86 | 1017.9 |
| 20260508090647 | 62 | 215 | 0.0 | 0.0 | 0.00 | 0.00 | 0.00 | 86 | 1017.8 |
| 20260508090144 | 62 | 216 | 0.0 | 0.0 | 0.00 | 0.00 | 0.00 | 86 | 1017.7 |
| 20260508085639 | 62 | 216 | 0.0 | 0.0 | 0.00 | 0.00 | 0.00 | 85 | 1017.7 |
| 20260508085137 | 62 | 216 | 0.0 | 0.0 | 0.00 | 0.00 | 0.00 | 85 | 1017.8 |
| 20260508084633 | 62 | 216 | 0.0 | 0.0 | 0.00 | 0.00 | 0.00 | 85 | 1017.6 |
| 20260508084131 | 62 | 216 | 0.0 | 0.0 | 0.00 | 0.00 | 0.00 | 85 | 1017.7 |
| 20260508083628 | 62 | 215 | 0.0 | 0.0 | 0.00 | 0.00 | 0.00 | 84 | 1017.7 |
| 20260508083125 | 62 | 215 | 0.0 | 0.0 | 0.00 | 0.00 | 0.00 | 84 | 1017.7 |
| 20260508082620 | 62 | 215 | 0.0 | 0.0 | 0.00 | 0.00 | 0.00 | 85 | 1017.9 |
| 20260508082119 | 62 | 215 | 0.0 | 0.0 | 0.00 | 0.00 | 0.00 | 84 | 1017.7 |
| 20260508081616 | 62 | 215 | 0.0 | 0.0 | 0.00 | 0.00 | 0.00 | 84 | 1017.8 |
| 20260508081112 | 62 | 215 | 0.0 | 0.0 | 0.00 | 0.00 | 0.00 | 84 | 1017.8 |
| 20260508080609 | 62 | 215 | 0.0 | 0.0 | 0.00 | 0.00 | 0.00 | 84 | 1018.0 |
| 20260508080108 | 62 | 215 | 0.0 | 0.0 | 0.00 | 0.00 | 0.00 | 84 | 1018.0 |
| 20260508075603 | 62 | 215 | 0.0 | 0.0 | 0.00 | 0.00 | 0.00 | 84 | 1017.9 |
| 20260508075101 | 62 | 216 | 0.0 | 0.0 | 0.00 | 0.00 | 0.00 | 84 | 1017.8 |
| 20260508074558 | 62 | 216 | 0.0 | 0.0 | 0.00 | 0.00 | 0.00 | 84 | 1017.7 |
| 20260508074055 | 62 | 216 | 0.0 | 0.0 | 0.00 | 0.00 | 0.00 | 84 | 1017.7 |
| 20260508073552 | 62 | 215 | 0.0 | 0.0 | 0.00 | 0.00 | 0.00 | 84 | 1017.8 |
| 20260508073050 | 62 | 216 | 0.0 | 0.0 | 0.00 | 0.00 | 0.00 | 84 | 1017.7 |
| 20260508072545 | 62 | 215 | 0.0 | 0.0 | 0.00 | 0.00 | 0.00 | 84 | 1017.6 |
| 20260508072042 | 62 | 205 | 0.9 | 0.9 | 0.00 | 0.00 | 0.00 | 85 | 1017.6 |
| 20260508071541 | 62 | 205 | 0.0 | 0.0 | 0.00 | 0.00 | 0.00 | 85 | 1017.9 |
| 20260508071038 | 62 | 205 | 0.0 | 0.0 | 0.00 | 0.00 | 0.00 | 85 | 1018.0 |
| 20260508070536 | 62 | 250 | 0.0 | 0.0 | 0.00 | 0.00 | 0.00 | 87 | 1017.9 |
| 20260508070034 | 61 | 250 | 0.0 | 0.0 | 0.00 | 0.00 | 0.00 | 87 | 1017.5 |
| 20260508065531 | 61 | 250 | 0.0 | 0.9 | 0.00 | 0.00 | 0.00 | 88 | 1017.8 |
| 20260508065029 | 61 | 250 | 0.0 | 0.0 | 0.00 | 0.00 | 0.00 | 88 | 1017.9 |
| 20260508064527 | 61 | 250 | 0.0 | 0.0 | 0.00 | 0.00 | 0.00 | 88 | 1018.4 |
| 20260508064024 | 61 | 250 | 0.0 | 0.0 | 0.00 | 0.00 | 0.00 | 89 | 1018.6 |
| 20260508063521 | 61 | 250 | 0.0 | 0.0 | 0.00 | 0.00 | 0.00 | 89 | 1018.3 |
| 20260508063019 | 61 | 250 | 0.0 | 0.0 | 0.00 | 0.00 | 0.00 | 89 | 1018.2 |
| 20260508062516 | 61 | 250 | 0.0 | 0.0 | 0.00 | 0.00 | 0.00 | 89 | 1018.1 |
| 20260508062013 | 61 | 250 | 0.0 | 0.0 | 0.00 | 0.00 | 0.00 | 88 | 1018.4 |
| 20260508061511 | 61 | 250 | 0.0 | 0.0 | 0.00 | 0.00 | 0.00 | 88 | 1018.7 |
| 20260508061007 | 61 | 250 | 0.0 | 0.0 | 0.00 | 0.00 | 0.00 | 88 | 1018.9 |
| 20260508060505 | 61 | 250 | 0.0 | 0.9 | 0.00 | 0.00 | 0.00 | 88 | 1018.7 |
| 20260508060001 | 61 | 250 | 0.0 | 0.0 | 0.00 | 0.00 | 0.00 | 88 | 1018.4 |
| 20260508055457 | 61 | 250 | 0.0 | 0.0 | 0.00 | 0.00 | 0.00 | 88 | 1018.6 |
| 20260508054954 | 61 | 250 | 0.0 | 0.0 | 0.00 | 0.00 | 0.00 | 88 | 1018.5 |
| 20260508054451 | 61 | 250 | 0.0 | 0.0 | 0.00 | 0.00 | 0.00 | 88 | 1018.3 |
| 20260508053948 | 61 | 250 | 0.0 | 0.0 | 0.00 | 0.00 | 0.00 | 87 | 1018.4 |
| 20260508053444 | 61 | 250 | 0.0 | 0.0 | 0.00 | 0.00 | 0.00 | 87 | 1018.5 |
| 20260508052943 | 61 | 250 | 0.0 | 0.0 | 0.00 | 0.00 | 0.00 | 86 | 1018.7 |
| 20260508052440 | 62 | 250 | 0.0 | 0.0 | 0.00 | 0.00 | 0.00 | 86 | 1018.7 |
| 20260508051936 | 62 | 250 | 0.0 | 0.0 | 0.00 | 0.00 | 0.00 | 85 | 1018.9 |
| 20260508051432 | 61 | 250 | 0.0 | 0.9 | 0.00 | 0.00 | 0.00 | 85 | 1018.6 |
| 20260508050928 | 61 | 250 | 0.0 | 0.9 | 0.00 | 0.00 | 0.00 | 85 | 1018.5 |
| 20260508050425 | 61 | 250 | 0.0 | 0.0 | 0.00 | 0.00 | 0.00 | 85 | 1018.6 |
| 20260508045921 | 62 | 250 | 0.0 | 0.0 | 0.00 | 0.00 | 0.00 | 85 | 1018.6 |
| 20260508045419 | 62 | 250 | 0.0 | 0.0 | 0.00 | 0.00 | 0.00 | 84 | 1018.4 |
| 20260508044916 | 62 | 250 | 0.0 | 0.0 | 0.00 | 0.00 | 0.00 | 84 | 1018.5 |
| 20260508044413 | 62 | 250 | 0.0 | 0.0 | 0.00 | 0.00 | 0.00 | 83 | 1018.8 |
| 20260508043908 | 62 | 250 | 0.0 | 0.0 | 0.00 | 0.00 | 0.00 | 82 | 1019.1 |
| 20260508043406 | 62 | 250 | 0.9 | 0.9 | 0.00 | 0.00 | 0.00 | 82 | 1019.1 |
| 20260508042902 | 62 | 235 | 0.0 | 0.9 | 0.00 | 0.00 | 0.00 | 82 | 1019.4 |
| 20260508042400 | 62 | 250 | 0.0 | 0.0 | 0.00 | 0.00 | 0.00 | 82 | 1018.2 |
| 20260508041857 | 62 | 250 | 0.0 | 0.0 | 0.00 | 0.00 | 0.00 | 83 | 1018.2 |
| 20260508041353 | 61 | 194 | 0.9 | 0.9 | 0.00 | 0.00 | 0.00 | 84 | 1017.7 |
| 20260508040850 | 61 | 194 | 0.0 | 0.0 | 0.00 | 0.00 | 0.00 | 85 | 1018.3 |
| 20260508040347 | 61 | 194 | 0.0 | 0.0 | 0.00 | 0.00 | 0.00 | 84 | 1018.6 |
| 20260508035845 | 61 | 194 | 0.0 | 0.0 | 0.00 | 0.00 | 0.00 | 84 | 1019.0 |
| 20260508035342 | 61 | 194 | 0.0 | 0.0 | 0.00 | 0.00 | 0.00 | 84 | 1018.8 |
| 20260508034839 | 61 | 194 | 0.0 | 0.0 | 0.00 | 0.00 | 0.00 | 84 | 1018.9 |
| 20260508034336 | 61 | 194 | 0.0 | 0.0 | 0.00 | 0.00 | 0.00 | 84 | 1019.0 |
| 20260508033832 | 61 | 194 | 0.0 | 0.0 | 0.00 | 0.00 | 0.00 | 84 | 1019.0 |
| 20260508033331 | 62 | 194 | 0.0 | 0.0 | 0.00 | 0.00 | 0.00 | 83 | 1019.2 |
| 20260508032828 | 62 | 194 | 0.0 | 0.0 | 0.00 | 0.00 | 0.00 | 82 | 1019.5 |
| 20260508032325 | 62 | 194 | 0.0 | 0.0 | 0.00 | 0.00 | 0.00 | 83 | 1019.4 |
| 20260508031821 | 62 | 194 | 0.0 | 0.0 | 0.00 | 0.00 | 0.00 | 82 | 1019.6 |
| 20260508031318 | 62 | 194 | 0.0 | 0.0 | 0.00 | 0.00 | 0.00 | 80 | 1019.7 |
| 20260508030815 | 62 | 194 | 0.0 | 0.0 | 0.00 | 0.00 | 0.00 | 80 | 1019.8 |
| 20260508030312 | 62 | 194 | 0.0 | 0.0 | 0.00 | 0.00 | 0.00 | 80 | 1019.4 |
| 20260508025808 | 62 | 194 | 0.0 | 0.0 | 0.00 | 0.00 | 0.00 | 80 | 1019.5 |
| 20260508025306 | 62 | 194 | 0.0 | 0.0 | 0.00 | 0.00 | 0.00 | 80 | 1019.2 |
| 20260508024802 | 63 | 194 | 0.0 | 0.0 | 0.00 | 0.00 | 0.00 | 79 | 1019.0 |
| 20260508024259 | 63 | 194 | 0.0 | 0.0 | 0.00 | 0.00 | 0.00 | 77 | 1018.4 |
| 20260508023756 | 63 | 193 | 0.9 | 0.9 | 0.00 | 0.00 | 0.00 | 77 | 1018.3 |
| 20260508023253 | 63 | 193 | 0.0 | 0.0 | 0.00 | 0.00 | 0.00 | 77 | 1018.0 |
| 20260508022749 | 63 | 193 | 0.0 | 0.0 | 0.00 | 0.00 | 0.00 | 76 | 1018.2 |
| 20260508022245 | 63 | 193 | 0.0 | 0.0 | 0.00 | 0.00 | 0.00 | 75 | 1018.0 |
| 20260508021743 | 64 | 193 | 0.0 | 0.9 | 0.00 | 0.00 | 0.00 | 75 | 1017.7 |
| 20260508021238 | 64 | 150 | 2.6 | 2.6 | 0.00 | 0.00 | 0.00 | 74 | 1017.0 |
| 20260508020735 | 64 | 208 | 3.5 | 4.3 | 0.00 | 0.00 | 0.00 | 74 | 1017.2 |
| 20260508020233 | 64 | 205 | 0.9 | 0.9 | 0.00 | 0.00 | 0.00 | 74 | 1017.2 |
| 20260508015729 | 64 | 204 | 0.9 | 0.9 | 0.00 | 0.00 | 0.00 | 75 | 1017.4 |
| 20260508015227 | 64 | 216 | 0.0 | 0.0 | 0.00 | 0.00 | 0.00 | 76 | 1017.3 |
| 20260508014723 | 64 | 216 | 0.0 | 0.9 | 0.00 | 0.00 | 0.00 | 75 | 1017.5 |
| 20260508014220 | 64 | 206 | 2.6 | 2.6 | 0.00 | 0.00 | 0.00 | 74 | 1017.4 |
| 20260508013716 | 64 | 217 | 0.0 | 0.0 | 0.00 | 0.00 | 0.00 | 74 | 1017.4 |
| 20260508013212 | 64 | 216 | 1.7 | 1.7 | 0.00 | 0.00 | 0.00 | 74 | 1017.0 |
| 20260508012710 | 64 | 195 | 2.6 | 2.6 | 0.00 | 0.00 | 0.00 | 74 | 1017.0 |
| 20260508012207 | 64 | 217 | 0.9 | 0.9 | 0.00 | 0.00 | 0.00 | 74 | 1017.0 |
| 20260508011705 | 65 | 174 | 2.6 | 4.3 | 0.00 | 0.00 | 0.00 | 74 | 1017.4 |
| 20260508011202 | 65 | 183 | 0.0 | 1.7 | 0.00 | 0.00 | 0.00 | 74 | 1017.5 |
| 20260508010659 | 65 | 202 | 0.9 | 0.9 | 0.00 | 0.00 | 0.00 | 73 | 1017.3 |
| 20260508010156 | 65 | 207 | 0.9 | 1.7 | 0.00 | 0.00 | 0.00 | 73 | 1017.5 |
| 20260508005654 | 65 | 203 | 0.0 | 0.0 | 0.00 | 0.00 | 0.00 | 73 | 1017.7 |
| 20260508005150 | 65 | 210 | 0.0 | 0.0 | 0.00 | 0.00 | 0.00 | 73 | 1017.9 |
| 20260508004646 | 65 | 210 | 0.9 | 1.7 | 0.00 | 0.00 | 0.00 | 72 | 1017.3 |
| 20260508004142 | 66 | 195 | 0.0 | 0.0 | 0.00 | 0.00 | 0.00 | 73 | 1017.9 |
| 20260508003639 | 66 | 190 | 0.9 | 1.7 | 0.00 | 0.00 | 0.00 | 71 | 1017.7 |
| 20260508003137 | 66 | 210 | 0.9 | 0.9 | 0.00 | 0.00 | 0.00 | 71 | 1017.6 |
| 20260508002633 | 66 | 211 | 0.0 | 0.9 | 0.00 | 0.00 | 0.00 | 70 | 1017.6 |
| 20260508002131 | 66 | 261 | 0.9 | 1.7 | 0.00 | 0.00 | 0.00 | 70 | 1018.1 |
| 20260508001626 | 66 | 209 | 0.9 | 1.7 | 0.00 | 0.00 | 0.00 | 69 | 1017.9 |
| 20260508001122 | 66 | 199 | 0.0 | 0.0 | 0.00 | 0.00 | 0.00 | 69 | 1018.1 |
| 20260508000618 | 66 | 186 | 2.6 | 2.6 | 0.00 | 0.00 | 0.00 | 70 | 1018.3 |
| 20260508000116 | 67 | 194 | 0.0 | 0.0 | 0.00 | 0.00 | 0.00 | 74 | 1018.3 |
| 20260507235613 | 67 | 194 | 0.0 | 0.0 | 0.00 | 0.00 | 0.00 | 74 | 1018.4 |
| 20260507235110 | 67 | 194 | 0.0 | 0.0 | 0.00 | 0.00 | 0.00 | 73 | 1018.4 |
| 20260507234606 | 67 | 210 | 0.9 | 0.9 | 0.00 | 0.00 | 0.00 | 72 | 1018.6 |
| 20260507234103 | 67 | 253 | 0.0 | 0.0 | 0.00 | 0.00 | 0.00 | 73 | 1019.0 |
| 20260507233559 | 67 | 211 | 0.0 | 0.9 | 0.00 | 0.00 | 0.00 | 71 | 1018.8 |
| 20260507233059 | 67 | 246 | 0.0 | 0.0 | 0.00 | 0.00 | 0.00 | 71 | 1018.6 |
| 20260507232554 | 68 | 155 | 2.6 | 4.3 | 0.00 | 0.00 | 0.00 | 68 | 1018.7 |
| 20260507232052 | 68 | 198 | 0.9 | 2.6 | 0.00 | 0.00 | 0.00 | 68 | 1018.7 |
| 20260507231548 | 68 | 210 | 0.9 | 1.7 | 0.00 | 0.00 | 0.00 | 68 | 1018.9 |
| 20260507231045 | 68 | 195 | 0.0 | 0.9 | 0.00 | 0.00 | 0.00 | 66 | 1018.6 |
| 20260507230541 | 68 | 210 | 0.0 | 0.9 | 0.00 | 0.00 | 0.00 | 68 | 1018.8 |
| 20260507230038 | 68 | 200 | 1.7 | 1.7 | 0.00 | 0.00 | 0.00 | 68 | 1018.5 |
| 20260507225533 | 68 | 354 | 0.9 | 1.7 | 0.00 | 0.00 | 0.00 | 68 | 1019.0 |
| 20260507225030 | 68 | 247 | 0.0 | 0.0 | 0.00 | 0.00 | 0.00 | 67 | 1019.1 |
| 20260507224526 | 69 | 247 | 0.0 | 0.0 | 0.00 | 0.00 | 0.00 | 66 | 1018.9 |
| 20260507224022 | 69 | 246 | 0.0 | 0.0 | 0.00 | 0.00 | 0.00 | 70 | 1018.8 |
| 20260507223519 | 69 | 222 | 0.0 | 0.9 | 0.00 | 0.00 | 0.00 | 68 | 1019.0 |
| 20260507223016 | 69 | 232 | 0.0 | 0.0 | 0.00 | 0.00 | 0.00 | 70 | 1019.1 |
| 20260507222513 | 69 | 232 | 0.0 | 0.0 | 0.00 | 0.00 | 0.00 | 69 | 1019.2 |
| 20260507222009 | 69 | 232 | 0.0 | 0.0 | 0.00 | 0.00 | 0.00 | 67 | 1019.4 |
| 20260507221506 | 69 | 232 | 0.0 | 0.0 | 0.00 | 0.00 | 0.00 | 69 | 1019.4 |
| 20260507221002 | 69 | 232 | 0.9 | 0.9 | 0.00 | 0.00 | 0.00 | 70 | 1019.3 |
| 20260507220500 | 69 | 231 | 0.9 | 1.7 | 0.00 | 0.00 | 0.00 | 68 | 1019.5 |
| 20260507215956 | 69 | 232 | 0.0 | 0.9 | 0.00 | 0.00 | 0.00 | 67 | 1019.0 |
| 20260507215453 | 69 | 239 | 0.0 | 0.9 | 0.00 | 0.00 | 0.00 | 68 | 1019.4 |
| 20260507214950 | 69 | 227 | 0.0 | 0.0 | 0.00 | 0.00 | 0.00 | 68 | 1019.4 |
| 20260507214447 | 69 | 189 | 0.0 | 0.9 | 0.00 | 0.00 | 0.00 | 68 | 1019.4 |
| 20260507213943 | 69 | 201 | 0.0 | 0.0 | 0.00 | 0.00 | 0.00 | 69 | 1019.3 |
| 20260507213440 | 69 | 201 | 0.0 | 0.0 | 0.00 | 0.00 | 0.00 | 68 | 1019.5 |
| 20260507212937 | 70 | 201 | 0.0 | 0.0 | 0.00 | 0.00 | 0.00 | 66 | 1019.6 |
| 20260507212432 | 71 | 200 | 1.7 | 1.7 | 0.00 | 0.00 | 0.00 | 66 | 1020.0 |
| 20260507211930 | 72 | 238 | 0.9 | 0.9 | 0.00 | 0.00 | 0.00 | 62 | 1019.9 |
| 20260507211426 | 70 | 256 | 0.0 | 0.0 | 0.00 | 0.00 | 0.00 | 66 | 1019.6 |
| 20260507210923 | 69 | 243 | 0.0 | 0.0 | 0.00 | 0.00 | 0.00 | 70 | 1019.6 |
| 20260507210420 | 68 | 240 | 0.9 | 0.9 | 0.00 | 0.00 | 0.00 | 67 | 1019.6 |
| 20260507205917 | 68 | 188 | 0.9 | 4.3 | 0.00 | 0.00 | 0.00 | 70 | 1019.5 |
| 20260507205414 | 68 | 215 | 1.7 | 2.6 | 0.00 | 0.00 | 0.00 | 67 | 1019.3 |
| 20260507204910 | 68 | 218 | 0.0 | 0.0 | 0.00 | 0.00 | 0.00 | 70 | 1019.6 |
| 20260507204407 | 67 | 218 | 0.0 | 0.0 | 0.00 | 0.00 | 0.00 | 71 | 1019.6 |
| 20260507203904 | 67 | 218 | 0.0 | 0.0 | 0.00 | 0.00 | 0.00 | 72 | 1019.7 |
| 20260507203402 | 67 | 192 | 0.0 | 0.0 | 0.00 | 0.00 | 0.00 | 71 | 1020.1 |
| 20260507202858 | 67 | 188 | 0.9 | 0.9 | 0.00 | 0.00 | 0.00 | 69 | 1020.0 |
| 20260507202355 | 68 | 201 | 0.0 | 0.0 | 0.00 | 0.00 | 0.00 | 71 | 1019.9 |
| 20260507201850 | 68 | 192 | 1.7 | 2.6 | 0.00 | 0.00 | 0.00 | 71 | 1020.2 |
| 20260507201346 | 68 | 243 | 0.0 | 0.0 | 0.00 | 0.00 | 0.00 | 70 | 1020.2 |
| 20260507200842 | 68 | 229 | 0.0 | 0.0 | 0.00 | 0.00 | 0.00 | 70 | 1020.4 |
| 20260507200339 | 68 | 216 | 0.0 | 0.9 | 0.00 | 0.00 | 0.00 | 71 | 1020.5 |
| 20260507195835 | 68 | 216 | 0.9 | 0.9 | 0.00 | 0.00 | 0.00 | 68 | 1020.2 |
| 20260507195332 | 69 | 231 | 0.9 | 0.9 | 0.00 | 0.00 | 0.00 | 69 | 1020.6 |
| 20260507194830 | 69 | 216 | 0.0 | 0.9 | 0.00 | 0.00 | 0.00 | 69 | 1020.5 |
| 20260507194326 | 67 | 226 | 0.0 | 0.0 | 0.00 | 0.00 | 0.00 | 71 | 1020.5 |
| 20260507193822 | 68 | 265 | 1.7 | 1.7 | 0.00 | 0.00 | 0.00 | 70 | 1020.4 |
| 20260507193320 | 68 | 201 | 2.6 | 2.6 | 0.00 | 0.00 | 0.00 | 69 | 1020.4 |
| 20260507192815 | 68 | 209 | 1.7 | 4.3 | 0.00 | 0.00 | 0.00 | 69 | 1020.8 |
| 20260507192312 | 68 | 257 | 0.9 | 1.7 | 0.00 | 0.00 | 0.00 | 70 | 1020.9 |
| 20260507191808 | 68 | 228 | 0.0 | 0.9 | 0.00 | 0.00 | 0.00 | 71 | 1021.4 |
| 20260507191305 | 67 | 216 | 0.0 | 0.9 | 0.00 | 0.00 | 0.00 | 72 | 1021.1 |
| 20260507190802 | 66 | 217 | 0.0 | 0.0 | 0.00 | 0.00 | 0.00 | 75 | 1021.1 |
| 20260507190301 | 66 | 220 | 0.0 | 0.0 | 0.00 | 0.00 | 0.00 | 74 | 1021.1 |
| 20260507185759 | 65 | 221 | 0.0 | 0.9 | 0.00 | 0.00 | 0.00 | 74 | 1021.0 |
| 20260507185255 | 65 | 220 | 2.6 | 4.3 | 0.00 | 0.00 | 0.00 | 75 | 1021.0 |
| 20260507184752 | 65 | 221 | 0.9 | 0.9 | 0.00 | 0.00 | 0.00 | 76 | 1020.8 |
| 20260507184250 | 66 | 226 | 1.7 | 2.6 | 0.00 | 0.00 | 0.00 | 75 | 1021.0 |
| 20260507183747 | 65 | 209 | 0.0 | 0.9 | 0.00 | 0.00 | 0.00 | 77 | 1020.7 |
| 20260507183244 | 65 | 217 | 0.9 | 1.7 | 0.00 | 0.00 | 0.00 | 76 | 1020.7 |
| 20260507182741 | 66 | 175 | 2.6 | 4.3 | 0.00 | 0.00 | 0.00 | 75 | 1020.4 |
| 20260507182236 | 66 | 186 | 2.6 | 5.2 | 0.00 | 0.00 | 0.00 | 74 | 1020.9 |
| 20260507181733 | 66 | 237 | 0.9 | 0.9 | 0.00 | 0.00 | 0.00 | 75 | 1021.1 |
| 20260507181230 | 65 | 224 | 0.0 | 0.9 | 0.00 | 0.00 | 0.00 | 76 | 1021.0 |
| 20260507180726 | 65 | 197 | 0.9 | 1.7 | 0.00 | 0.00 | 0.00 | 78 | 1021.2 |
| 20260507180223 | 65 | 235 | 0.0 | 0.0 | 0.00 | 0.00 | 0.00 | 78 | 1021.1 |
| 20260507175719 | 65 | 238 | 0.0 | 0.9 | 0.00 | 0.00 | 0.00 | 79 | 1021.4 |
| 20260507175216 | 65 | 224 | 0.0 | 0.0 | 0.00 | 0.00 | 0.00 | 79 | 1020.9 |